C/2020 H3 ( Wierzchos )

Japanese version
Home page
Updated on August 11, 2020

---------------------------------------------------------------------

* Profile

Discovery Date April 25, 2020
Magnitude 19.1 mag
Discoverer Kacper W. Wierzchos (Mount Lemmon Survey)

* Pictures

* Orbital Elements

Epoch 2020 May 31.0 TT = JDT 2459000.5
T 2020 June 3.56741 TT                                  Rudenko
q   2.3043970            (2000.0)            P               Q
z  -0.0009906      Peri.   29.60791     +0.23776829     +0.39828813
 +/-0.0000151      Node   270.56971     -0.96966670     +0.15055307
e   1.0022827      Incl.   62.36887     +0.05668086     +0.90482061
From 99 observations 2020 Apr. 25-July 19, mean residual 0".5.

* Magnitudes Graph

        m1 = 13.5 + 5 log d + 10.0 log r

---------------------------------------------------------------------

The orbital elements are published on M.P.E.C. 2020-P19.
The magnitudes graphs are made with Comet for Windows.

---------------------------------------------------------------------

Copyright(C) Seiichi Yoshida (comet@aerith.net). All rights reserved.